• In Deutschland
  • Länderverzeichnis
  • Für 7 Tage
  • Wassertemperatur
  • Satellitenkarten
  • Wetterkarte
  • Widgets
  • user-avatar
    Anmelden

    Stündliche Wetter Tibissa

    Heute, 17 August, Donnerstag

    Zeit Temperatur Niederschläge Wind Luftdruck Luftfeuchtigkeit
    00:00 +30°C° 0 mm 3 m/S 689 mmHg 37%
    01:00 +29°C° 0 mm 2 m/S 688 mmHg 40%
    02:00 +29°C° 0 mm 2 m/S 688 mmHg 41%
    03:00 +28°C° 0 mm 1 m/S 688 mmHg 43%
    04:00 +28°C° 0 mm 1 m/S 688 mmHg 44%
    05:00 +28°C° 0 mm 1 m/S 688 mmHg 44%
    06:00 +28°C° 0 mm 1 m/S 688 mmHg 43%
    07:00 +28°C° 0 mm 1 m/S 688 mmHg 42%
    08:00 +29°C° 0 mm 1 m/S 689 mmHg 38%
    09:00 +31°C° 0 mm 1 m/S 689 mmHg 34%
    10:00 +32°C° 0 mm 2 m/S 689 mmHg 30%
    11:00 +34°C° 0,1 mm 2 m/S 689 mmHg 29%
    12:00 +34°C° 0,1 mm 2 m/S 689 mmHg 27%
    13:00 +35°C° 0,1 mm 2 m/S 689 mmHg 25%
    14:00 +35°C° 0,1 mm 2 m/S 689 mmHg 25%
    15:00 +35°C° 0,1 mm 3 m/S 689 mmHg 25%
    16:00 +35°C° 0,1 mm 3 m/S 689 mmHg 25%
    17:00 +35°C° 0 mm 3 m/S 688 mmHg 26%
    18:00 +34°C° 0 mm 3 m/S 688 mmHg 28%
    19:00 +34°C° 0 mm 3 m/S 688 mmHg 30%
    20:00 +33°C° 0 mm 3 m/S 689 mmHg 31%
    21:00 +31°C° 0 mm 3 m/S 689 mmHg 33%
    22:00 +30°C° 0 mm 3 m/S 689 mmHg 34%
    23:00 +30°C° 0 mm 3 m/S 689 mmHg 35%

    Morgen, 18 August, Freitag

    Zeit Temperatur Niederschläge Wind Luftdruck Luftfeuchtigkeit
    00:00 +29°C° 0 mm 2 m/S 689 mmHg 36%
    01:00 +28°C° 0 mm 2 m/S 688 mmHg 37%
    02:00 +28°C° 0 mm 2 m/S 688 mmHg 38%
    03:00 +27°C° 0 mm 1 m/S 688 mmHg 39%
    04:00 +27°C° 0 mm 1 m/S 688 mmHg 40%
    05:00 +27°C° 0 mm 1 m/S 688 mmHg 40%
    06:00 +27°C° 0 mm 1 m/S 688 mmHg 39%
    07:00 +27°C° 0 mm 1 m/S 688 mmHg 38%
    08:00 +28°C° 0 mm 1 m/S 689 mmHg 35%
    09:00 +30°C° 0 mm 1 m/S 689 mmHg 32%
    10:00 +31°C° 0 mm 1 m/S 689 mmHg 30%
    11:00 +32°C° 0 mm 1 m/S 689 mmHg 28%
    12:00 +34°C° 0 mm 2 m/S 689 mmHg 26%
    13:00 +35°C° 0 mm 2 m/S 689 mmHg 24%
    14:00 +35°C° 0 mm 3 m/S 689 mmHg 24%
    15:00 +35°C° 0 mm 3 m/S 688 mmHg 23%
    16:00 +36°C° 0 mm 4 m/S 688 mmHg 22%
    17:00 +35°C° 0 mm 4 m/S 688 mmHg 22%
    18:00 +35°C° 0 mm 4 m/S 688 mmHg 23%
    19:00 +34°C° 0 mm 4 m/S 688 mmHg 23%
    20:00 +34°C° 0 mm 5 m/S 688 mmHg 25%
    21:00 +33°C° 0 mm 5 m/S 688 mmHg 26%
    22:00 +32°C° 0 mm 5 m/S 688 mmHg 28%
    23:00 +30°C° 0 mm 4 m/S 688 mmHg 30%

    übermorgen, 19 August, Samstag

    Zeit Temperatur Niederschläge Wind Luftdruck Luftfeuchtigkeit
    00:00 +29°C° 0 mm 3 m/S 688 mmHg 32%
    01:00 +29°C° 0 mm 2 m/S 687 mmHg 34%
    02:00 +28°C° 0 mm 2 m/S 687 mmHg 35%
    03:00 +27°C° 0 mm 2 m/S 687 mmHg 36%
    04:00 +27°C° 0 mm 1 m/S 687 mmHg 37%
    05:00 +27°C° 0 mm 1 m/S 687 mmHg 36%
    06:00 +27°C° 0 mm 1 m/S 687 mmHg 35%
    07:00 +28°C° 0 mm 2 m/S 688 mmHg 34%
    08:00 +29°C° 0 mm 2 m/S 688 mmHg 31%
    09:00 +31°C° 0 mm 2 m/S 689 mmHg 29%
    10:00 +33°C° 0 mm 3 m/S 689 mmHg 26%
    11:00 +34°C° 0 mm 3 m/S 689 mmHg 25%
    12:00 +35°C° 0 mm 3 m/S 689 mmHg 24%
    13:00 +36°C° 0 mm 4 m/S 689 mmHg 23%
    14:00 +36°C° 0 mm 4 m/S 689 mmHg 22%
    15:00 +36°C° 0 mm 5 m/S 689 mmHg 21%
    16:00 +37°C° 0 mm 5 m/S 688 mmHg 21%
    17:00 +36°C° 0 mm 5 m/S 688 mmHg 22%
    18:00 +35°C° 0 mm 6 m/S 688 mmHg 23%
    19:00 +34°C° 0 mm 6 m/S 688 mmHg 24%
    20:00 +33°C° 0 mm 6 m/S 689 mmHg 26%
    21:00 +32°C° 0 mm 5 m/S 689 mmHg 28%
    22:00 +30°C° 0 mm 5 m/S 689 mmHg 31%
    23:00 +29°C° 0 mm 4 m/S 689 mmHg 33%

    20 August, Sonntag

    Zeit Temperatur Niederschläge Wind Luftdruck Luftfeuchtigkeit
    00:00 +28°C° 0 mm 3 m/S 689 mmHg 35%
    01:00 +27°C° 0 mm 2 m/S 689 mmHg 38%
    02:00 +27°C° 0 mm 2 m/S 689 mmHg 40%
    03:00 +26°C° 0 mm 2 m/S 689 mmHg 43%
    04:00 +26°C° 0 mm 2 m/S 688 mmHg 45%
    05:00 +25°C° 0 mm 2 m/S 689 mmHg 46%
    06:00 +25°C° 0 mm 2 m/S 689 mmHg 46%
    07:00 +25°C° 0 mm 1 m/S 689 mmHg 47%
    08:00 +27°C° 0 mm 1 m/S 689 mmHg 42%
    09:00 +28°C° 0 mm 1 m/S 690 mmHg 38%
    10:00 +29°C° 0 mm 1 m/S 690 mmHg 33%
    11:00 +31°C° 0 mm 2 m/S 690 mmHg 30%
    12:00 +32°C° 0 mm 2 m/S 690 mmHg 26%
    13:00 +34°C° 0 mm 3 m/S 690 mmHg 23%
    14:00 +35°C° 0 mm 3 m/S 690 mmHg 23%
    15:00 +35°C° 0 mm 4 m/S 689 mmHg 22%
    16:00 +35°C° 0 mm 5 m/S 689 mmHg 21%
    17:00 +34°C° 0 mm 5 m/S 689 mmHg 24%
    18:00 +33°C° 0 mm 6 m/S 689 mmHg 26%
    19:00 +32°C° 0 mm 6 m/S 689 mmHg 28%
    20:00 +30°C° 0 mm 5 m/S 689 mmHg 29%
    21:00 +29°C° 0 mm 4 m/S 689 mmHg 31%
    22:00 +27°C° 0 mm 4 m/S 689 mmHg 32%
    23:00 +27°C° 0 mm 3 m/S 689 mmHg 33%

    21 August, Montag

    Zeit Temperatur Niederschläge Wind Luftdruck Luftfeuchtigkeit
    00:00 +26°C° 0 mm 3 m/S 689 mmHg 33%
    01:00 +26°C° 0 mm 2 m/S 689 mmHg 34%
    02:00 +25°C° 0 mm 2 m/S 689 mmHg 35%
    03:00 +25°C° 0 mm 2 m/S 688 mmHg 36%
    04:00 +24°C° 0 mm 1 m/S 688 mmHg 37%
    05:00 +24°C° 0 mm 2 m/S 688 mmHg 37%
    06:00 +24°C° 0 mm 2 m/S 688 mmHg 37%
    07:00 +24°C° 0 mm 2 m/S 689 mmHg 36%
    08:00 +26°C° 0 mm 3 m/S 689 mmHg 32%
    09:00 +27°C° 0 mm 3 m/S 689 mmHg 27%
    10:00 +29°C° 0 mm 4 m/S 690 mmHg 22%
    11:00 +30°C° 0 mm 4 m/S 690 mmHg 21%
    12:00 +32°C° 0 mm 4 m/S 689 mmHg 19%
    13:00 +33°C° 0 mm 5 m/S 689 mmHg 18%
    14:00 +34°C° 0 mm 5 m/S 689 mmHg 17%
    15:00 +34°C° 0 mm 5 m/S 689 mmHg 17%
    16:00 +34°C° 0 mm 5 m/S 688 mmHg 17%
    17:00 +33°C° 0 mm 6 m/S 688 mmHg 20%
    18:00 +32°C° 0 mm 6 m/S 688 mmHg 23%
    19:00 +30°C° 0 mm 6 m/S 688 mmHg 26%
    20:00 +29°C° 0 mm 5 m/S 688 mmHg 31%
    21:00 +28°C° 0 mm 4 m/S 688 mmHg 36%
    22:00 +27°C° 0 mm 3 m/S 689 mmHg 41%
    23:00 +26°C° 0 mm 3 m/S 688 mmHg 44%

    22 August, Dienstag

    Zeit Temperatur Niederschläge Wind Luftdruck Luftfeuchtigkeit
    00:00 +25°C° 0 mm 2 m/S 688 mmHg 47%
    01:00 +25°C° 0 mm 2 m/S 688 mmHg 50%
    02:00 +24°C° 0 mm 2 m/S 688 mmHg 53%
    03:00 +24°C° 0 mm 1 m/S 688 mmHg 55%
    04:00 +23°C° 0 mm 1 m/S 687 mmHg 58%
    05:00 +23°C° 0 mm 1 m/S 687 mmHg 58%
    06:00 +23°C° 0 mm 1 m/S 688 mmHg 58%
    07:00 +23°C° 0 mm 1 m/S 688 mmHg 58%
    08:00 +25°C° 0 mm 1 m/S 688 mmHg 51%
    09:00 +26°C° 0 mm 1 m/S 688 mmHg 44%
    10:00 +27°C° 0 mm 1 m/S 689 mmHg 37%
    11:00 +29°C° 0 mm 1 m/S 689 mmHg 33%
    12:00 +30°C° 0 mm 2 m/S 689 mmHg 28%
    13:00 +32°C° 0 mm 2 m/S 688 mmHg 23%
    14:00 +33°C° 0 mm 3 m/S 688 mmHg 22%
    15:00 +34°C° 0 mm 3 m/S 688 mmHg 20%
    16:00 +35°C° 0 mm 3 m/S 687 mmHg 19%
    17:00 +34°C° 0 mm 3 m/S 687 mmHg 20%
    18:00 +34°C° 0 mm 4 m/S 687 mmHg 21%
    19:00 +33°C° 0 mm 4 m/S 687 mmHg 22%
    20:00 +32°C° 0 mm 4 m/S 687 mmHg 25%
    21:00 +30°C° 0 mm 4 m/S 687 mmHg 28%
    22:00 +29°C° 0 mm 3 m/S 687 mmHg 31%
    23:00 +28°C° 0 mm 3 m/S 687 mmHg 37%
    Mehr zeigen